CAPE
0 0 36 50 56 32 3 15 151 1195 1042 795 827 1135 682 251 367 142 136 33 13 30 46 52 28 59 65 68 60 46 39 34 39 25 29 24 27 34 18 19 28 9 21 31
1 4 7 4 0 0 5 193 543 373 873 787 796 834 510 360 378 190 167 91 30 8 81 45 49 52 52 45 36 29 21 49 40 41 55 27 32 29 27 26 24 56 31 70
13 44 17 0 14 79 191 0 0 471 634 517 583 782 528 544 415 228 148 86 38 62 67 63 26 49 37 41 16 18 25 41 70 100 67 52 69 98 22 26 23 40 58 52
85 122 54 129 182 190 227 48 56 61 151 288 550 528 829 710 581 326 247 64 7 22 23 37 49 65 50 6 11 24 30 21 60 94 69 98 44 33 26 27 56 94 104 89
177 15 233 234 209 149 135 106 95 77 291 394 342 0 431 792 601 277 98 7 32 81 9 14 40 41 4 6 8 19 29 35 87 99 74 48 70 49 56 48 91 130 151 134
57 128 212 334 171 178 208 196 328 404 607 10 177 59 521 707 684 612 390 166 56 9 25 44 44 32 29 22 9 14 40 23 43 92 94 68 51 73 60 88 77 89 165 234
9 79 251 229 300 442 375 368 385 282 411 264 415 514 840 482 437 580 322 30 84 39 48 55 36 36 33 21 11 7 21 14 31 53 77 63 68 85 84 84 66 82 79 379
263 200 182 72 174 157 163 309 248 313 145 32 563 122 577 396 121 39 95 117 147 78 62 46 29 2 17 10 7 16 15 26 44 67 63 64 73 74 62 138 83 98 84 157
287 280 132 1 30 60 35 144 243 167 82 100 217 67 359 356 431 486 444 251 190 92 97 48 40 15 15 5 17 28 8 11 27 39 67 68 61 76 80 100 158 111 302 178
205 148 174 99 8 75 127 100 302 270 257 215 470 187 95 88 131 367 366 411 128 140 42 17 8 36 20 27 16 13 16 14 60 55 48 60 51 65 81 69 63 84 186 182
58 234 62 80 140 54 85 192 220 356 182 270 178 86 149 158 84 61 123 213 247 129 41 42 8 43 31 24 11 10 9 11 34 52 47 63 56 55 52 56 67 85 122 127
31 0 66 90 23 24 133 106 235 395 413 111 136 401 60 35 79 92 87 138 142 125 60 48 36 32 6 22 15 11 8 11 27 43 37 69 83 95 80 78 66 83 73 28
25 149 5 244 121 135 118 172 322 413 518 188 150 157 67 19 1 12 14 9 29 28 49 45 18 2 1 25 7 15 18 6 11 54 80 77 123 103 102 87 83 78 40 11
13 65 121 247 85 159 116 4 107 233 111 68 83 213 8 0 0 0 0 2 13 29 35 18 10 23 11 19 8 2 10 15 16 38 80 79 131 97 80 63 68 70 42 13
194 118 52 99 62 22 2 0 0 6 25 71 22 43 0 0 0 0 0 6 18 24 3 25 23 26 22 11 4 8 9 13 62 100 84 115 126 56 46 68 98 80 68 53
235 71 96 29 4 7 0 0 3 14 1 31 40 5 0 0 0 0 7 14 20 25 22 14 24 23 28 11 3 11 12 24 33 54 66 85 84 153 44 73 91 121 109 80
332 215 263 35 10 56 32 1 20 31 5 0 2 3 2 0 0 1 5 14 22 25 19 24 20 23 25 14 10 30 30 42 48 73 71 45 73 46 106 93 125 88 132 147
330 443 379 24 127 30 18 20 20 12 1 2 13 7 8 2 9 30 28 0 6 16 20 27 28 30 12 9 5 40 14 61 64 70 36 23 59 29 3 45 68 148 125 149
400 550 389 281 78 18 2 3 2 57 28 17 27 40 34 23 32 3 10 2 4 14 18 27 25 28 17 19 40 25 12 25 78 79 18 73 91 84 110 3 11 52 78 134
305 437 290 184 57 18 15 8 0 40 8 27 26 18 31 46 58 42 40 37 23 19 8 8 18 23 11 11 63 63 42 34 61 55 27 76 92 58 61 132 115 20 19 94
239 140 48 65 49 35 27 31 15 73 184 92 37 74 88 33 76 58 53 49 52 49 26 17 21 36 49 67 26 38 61 61 74 91 42 97 112 114 61 118 142 109 2 9
43 329 66 124 76 80 50 71 210 278 285 201 159 46 69 217 77 75 68 75 58 75 60 24 15 37 51 48 42 47 71 92 94 44 58 109 81 48 84 158 148 137 88 22
15 70 38 202 268 166 97 127 103 135 162 184 163 143 186 275 186 52 83 225 195 64 80 82 48 47 27 20 40 48 65 77 94 104 161 109 71 113 121 123 197 145 190 41
20 113 79 106 113 50 33 37 7 13 25 30 31 24 87 100 120 127 204 256 284 258 193 135 84 71 43 22 13 66 65 51 83 105 120 106 131 129 84 82 18 86 83 102
35 45 20 54 49 66 8 5 0 1 3 4 6 23 51 69 54 60 52 154 184 159 123 219 210 164 95 53 58 57 68 85 64 111 121 141 155 187 148 154 110 90 101 44
11 35 34 35 59 35 16 2 0 2 1 5 17 37 38 52 65 90 98 169 209 179 230 329 421 224 204 164 100 106 86 68 84 109 127 152 87 76 71 94 82 29 5 0
CIN
-0 -0 -0 -2 -0 -0 -4 -4 -0 -1 -18 -10 -12 -29 -65 -85 -42 -25 -7 -11 -14 -18 -12 -0 -1 -0 -0 -0 -0 -1 -0 -0 -0 -0 -0 -0 -0 -0 -1 -1 -1 -6 -0 -2
-0 -0 -0 -4 -0 -0 -14 -0 -60 -20 -24 -12 -0 -1 -55 -40 -13 -8 -1 -6 -8 -15 -15 -12 -1 -0 -0 -0 -0 -0 -0 -0 -0 -0 -1 -0 -0 -0 -0 -1 -2 -0 -0 -0
-0 -6 -23 -0 -1 -6 -93 -0 -0 -0 -8 -20 -0 -0 -26 -19 -3 -0 -2 -1 -5 -24 -17 -35 -7 -0 -0 -0 -1 -0 -0 -1 -0 -1 -0 -0 -0 -0 -0 -0 -0 -0 -0 -0
-30 -0 -3 -0 -2 -1 -0 -72 -7 -1 -0 -0 -57 -0 -1 -3 -0 -0 -0 -6 -56 -24 -5 -0 -5 -0 -0 -5 -0 -0 -0 -7 -1 -0 -0 -0 -1 -1 -0 -0 -0 -2 -0 -0
-38 -65 -0 -0 -11 -18 -0 -8 -2 -11 -0 -4 -11 -0 -0 -0 -0 -3 -7 -59 -28 -15 -0 -0 -0 -0 -0 -0 -0 -1 -2 -2 -0 -1 -0 -0 -0 -0 -1 -1 -0 -0 -0 -1
-87 -1 -7 -10 -14 -9 -11 -0 -0 -0 -0 -186 -20 -55 -0 -0 -0 -0 -0 -1 -6 -18 -0 -0 -0 -0 -0 -0 -0 -0 -2 -10 -1 -2 -0 -0 -0 -0 -0 -0 -0 -0 -0 -0
-123 -29 -26 -17 -0 -1 -0 -0 -0 -2 -0 -0 -46 -1 -0 -1 -11 -0 -0 -18 -1 -26 -20 -1 -1 -0 -0 -0 -0 -0 -3 -4 -0 -0 -0 -0 -0 -0 -0 -0 -0 -1 -0 -1
-5 -3 -1 -2 -0 -0 -0 -0 -0 -0 -0 -2 -18 -10 -0 -0 -11 -21 -3 -12 -0 -0 -7 -0 -0 -0 -2 -0 -0 -0 -2 -0 -2 -1 -0 -0 -0 -0 -0 -0 -0 -1 -0 -0
-0 -2 -22 -4 -18 -3 -0 -0 -1 -0 -0 -31 -41 -3 -0 -0 -0 -2 -2 -14 -10 -2 -7 -0 -0 -0 -3 -0 -0 -0 -1 -6 -0 -0 -0 -0 -0 -0 -0 -0 -0 -0 -1 -1
-0 -1 -2 -0 -3 -0 -1 -0 -0 -0 -0 -0 -4 -37 -0 -1 -2 -2 -0 -11 -72 -0 -2 -1 -0 -0 -0 -0 -1 -5 -3 -4 -0 -1 -0 -0 -0 -0 -0 -0 -0 -0 -0 -0
-6 -0 -0 -1 -0 -0 -0 -1 -0 -0 -101 -0 -13 -17 -6 -0 -8 -8 -0 -1 -2 -1 -1 -0 -0 -0 -0 -0 -0 -8 -2 -5 -0 -1 -0 -0 -0 -0 -0 -0 -0 -0 -0 -0
-4 -0 -0 -0 -14 -2 -1 -3 -0 -0 -0 -0 -0 -0 -7 -55 -19 -21 -1 -11 -8 -13 -0 -0 -0 -1 -13 -0 -2 -1 -8 -2 -0 -1 -0 -0 -0 -0 -0 -0 -0 -0 -0 -0
-19 -4 -3 -1 -32 -17 -3 -0 -7 -0 -3 -9 -2 -1 -30 -101 -131 -76 -68 -59 -68 -0 -0 -0 -1 -17 -2 -0 -3 -0 -0 -3 -1 -1 -0 -0 -0 -0 -0 -0 -0 -0 -0 -0
-12 -9 -0 -0 -5 -0 -8 -50 -40 -16 -16 -16 -0 -0 -87 -0 -0 -0 -0 -0 -0 -0 -0 -1 -7 -0 -1 -0 -4 -2 -2 -0 -0 -1 -0 -0 -0 -0 -0 -0 -0 -0 -0 -0
-1 -0 -0 -0 -13 -33 -0 -0 -0 -30 -16 -3 -13 -15 -0 -0 -0 -0 -0 -0 -0 -0 -5 -0 -0 -0 -0 -2 -5 -2 -1 -1 -0 -1 -0 -0 -1 -0 -0 -0 -0 -0 -0 -1
-0 -0 -2 -14 -19 -0 -0 -3 -18 -0 -0 -13 -12 -0 -0 -0 -0 -0 -0 -0 -0 -0 -0 -0 -0 -0 -0 -1 -3 -1 -2 -1 -0 -0 -0 -0 -0 -1 -0 -0 -1 -0 -0 -0
-1 -0 -0 -5 -8 -10 -0 -0 -0 -0 -0 -0 -0 -0 -0 -0 -0 -0 -0 -0 -0 -0 -0 -0 -0 -0 -0 -0 -2 -0 -0 -0 -0 -0 -0 -1 -1 -0 -1 -2 -2 -0 -0 -0
-0 -0 -0 -5 -0 -0 -1 -0 -0 -0 -0 -0 -0 -0 -0 -0 -0 -0 -0 -0 -0 -0 -0 -0 -0 -0 -1 -1 -2 -0 -0 -1 -0 -0 -1 -0 -0 -0 -0 -0 -0 -0 -0 -0
-0 -5 -0 -1 -1 -0 -4 -0 -0 -0 -0 -0 -0 -0 -0 -0 -0 -9 -0 -0 -0 -0 -0 -0 -0 -0 -0 -1 -0 -0 -0 -2 -0 -3 -1 -2 -3 -11 -0 -0 -0 -0 -0 -0
-0 -3 -0 -3 -3 -0 -0 -0 -0 -0 -10 -0 -0 -1 -0 -0 -0 -0 -0 -0 -0 -0 -1 -4 -0 -0 -1 -6 -1 -0 -0 -0 -0 -3 -0 -1 -6 -0 -0 -0 -0 -3 -0 -1
-0 -0 -1 -1 -3 -0 -0 -0 -0 -0 -0 -0 -6 -0 -2 -0 -0 -0 -0 -0 -0 -0 -0 -0 -0 -0 -0 -2 -0 -0 -1 -0 -0 -1 -1 -2 -1 -1 -1 -1 -0 -0 -0 -0
-14 -2 -1 -0 -3 -2 -8 -5 -1 -0 -0 -0 -2 -20 -13 -0 -0 -4 -14 -3 -0 -0 -0 -1 -2 -5 -2 -2 -1 -0 -0 -3 -1 -0 -0 -5 -0 -1 -0 -3 -5 -1 -0 -0
-32 -3 -18 -0 -0 -0 -1 -0 -0 -0 -0 -0 -0 -1 -2 -0 -0 -0 -0 -3 -4 -0 -0 -0 -0 -0 -0 -2 -1 -1 -0 -4 -1 -0 -1 -0 -0 -1 -11 -0 -2 -11 -8 -2
-0 -6 -15 -2 -4 -0 -0 -0 -8 -3 -0 -0 -0 -0 -3 -0 -0 -0 -1 -1 -0 -3 -1 -1 -0 -0 -0 -1 -3 -5 -3 -1 -0 -1 -0 -0 -1 -5 -0 -10 -58 -4 -24 -2
-9 -15 -4 -2 -0 -1 -15 -0 -0 -0 -0 -0 -0 -0 -0 -0 -2 -0 -0 -0 -2 -13 -30 -1 -6 -0 -0 -0 -1 -3 -1 -1 -0 -0 -0 -0 -1 -2 -2 -3 -17 -1 -0 -4
-0 -0 -0 -1 -0 -0 -0 -0 -0 -0 -0 -0 -0 -0 -0 -1 -1 -1 -0 -0 -0 -0 -0 -0 -0 -2 -1 -0 -0 -3 -5 -1 -0 -0 -0 -0 -12 -15 -0 -1 -31 -25 -39 -0
Wind_Speed
15 12 15 16 8 13 13 17 8 15 5 6 5 14 12 11 13 9 11 10 9 8 8 5 2 8 8 8 8 8 10 11 10 9 10 10 10 9 8 7 7 7 8 9
15 14 14 8 11 14 18 15 17 8 5 5 7 12 12 12 12 11 10 11 10 7 11 6 7 6 7 7 7 8 9 9 7 10 7 7 8 7 5 7 9 8 10 9
12 6 4 6 9 13 12 19 27 12 2 12 8 13 13 13 9 10 9 9 9 13 9 10 6 6 5 5 7 8 8 8 4 6 6 6 10 4 7 8 7 8 9 10
8 19 3 9 5 14 9 13 9 12 14 15 16 5 17 15 14 12 12 11 7 5 4 6 10 5 3 6 6 6 7 4 6 5 7 9 8 6 6 8 6 6 9 10
8 19 7 7 9 7 8 13 16 21 16 21 14 10 6 15 12 7 7 12 9 9 5 6 5 5 3 4 5 4 5 5 4 5 7 7 9 7 4 6 6 8 8 9
14 4 8 7 4 3 4 11 18 12 5 1 9 5 8 7 8 11 11 10 9 7 8 7 6 3 2 6 7 7 10 7 6 7 6 8 8 9 7 8 8 4 5 6
6 26 4 1 8 9 10 12 12 10 8 9 10 9 15 15 10 11 14 10 10 8 7 7 5 4 3 8 9 8 12 7 7 8 8 8 8 9 9 8 7 9 7 4
4 4 7 9 10 12 19 9 11 18 14 19 21 16 9 11 11 15 9 9 8 4 6 7 5 6 9 9 8 8 11 8 7 8 9 8 7 7 7 10 7 6 6 5
14 6 4 1 10 8 14 13 6 14 21 15 4 7 12 12 10 10 10 7 7 6 6 5 4 6 8 9 7 9 8 7 7 9 6 6 7 9 8 9 8 7 7 8
7 11 4 4 8 8 7 10 12 7 13 8 11 10 9 11 9 4 6 6 4 2 7 5 5 6 6 6 6 7 7 7 4 6 7 7 8 9 6 7 8 6 7 7
10 11 13 11 9 11 13 5 9 7 7 12 4 1 10 14 15 13 11 8 7 5 3 4 2 4 7 7 6 9 7 8 7 7 7 6 6 7 7 5 8 8 6 10
7 7 10 7 9 10 9 8 9 11 4 3 6 8 11 11 10 9 13 8 9 9 6 6 6 9 10 8 9 7 4 5 5 7 7 8 8 7 6 7 6 6 8 7
10 6 10 12 5 5 14 19 20 11 13 16 9 4 12 14 11 10 9 11 6 7 5 8 9 7 4 6 8 6 5 5 6 9 8 10 9 6 6 6 5 6 7 6
5 4 6 12 17 16 13 17 18 17 6 8 11 10 15 13 12 12 11 7 5 3 5 6 5 5 4 4 6 6 4 6 6 6 8 8 8 8 4 5 7 7 6 5
5 6 10 18 17 14 14 17 10 6 5 6 12 10 11 12 10 10 8 7 7 6 8 8 8 7 5 6 3 6 3 4 4 8 5 6 9 6 5 5 7 5 6 5
2 4 12 14 11 14 12 3 6 7 10 9 8 10 13 11 11 9 9 8 9 8 10 9 7 6 4 5 3 4 6 5 4 5 6 4 3 5 4 4 3 3 5 6
3 6 5 3 7 8 6 12 7 5 11 10 10 11 11 12 10 8 10 10 11 10 8 8 7 5 5 1 4 4 6 6 4 6 7 2 4 4 5 6 7 7 4 4
3 0 4 7 5 5 6 7 2 9 8 10 9 11 12 12 7 6 10 12 10 8 9 8 7 5 2 3 2 6 5 6 4 6 6 6 4 3 4 4 4 5 5 4
6 4 3 3 4 11 11 9 8 5 13 9 11 12 12 14 11 2 11 10 7 6 7 6 6 6 4 4 5 7 6 6 4 10 2 3 5 8 9 4 6 3 4 3
7 4 3 5 3 3 8 11 6 4 5 11 15 13 13 16 11 13 12 9 8 7 4 6 8 6 4 3 5 7 8 7 5 8 3 3 3 4 4 7 6 4 6 4
2 2 2 5 6 6 10 11 11 4 8 14 11 12 9 10 10 10 9 8 7 6 6 6 7 6 5 5 6 10 7 8 6 10 3 4 6 8 4 4 6 6 5 6
8 9 5 3 3 4 15 9 9 10 13 11 10 10 11 14 12 11 12 11 6 8 6 7 8 9 7 5 5 10 7 8 8 7 6 4 6 6 8 1 4 6 4 7
4 9 7 10 7 8 13 11 9 11 9 9 13 15 14 16 16 12 13 12 10 9 6 7 8 8 6 7 7 8 9 7 9 8 8 6 8 7 5 7 6 6 6 6
5 11 5 7 6 10 12 11 13 14 15 15 14 15 11 12 13 17 15 15 13 8 8 7 8 8 9 7 9 8 7 7 10 9 10 7 7 9 6 6 3 10 4 6
8 7 5 10 12 4 12 14 15 15 16 17 17 16 17 19 16 13 14 14 13 12 13 10 5 8 9 8 8 6 7 9 11 8 8 8 8 8 6 8 6 8 6 4
10 11 7 4 11 9 12 12 15 15 15 15 15 16 16 13 12 13 15 14 15 17 17 16 15 12 10 9 7 6 6 9 11 10 8 8 5 8 6 9 4 10 8 5
Wind_Direction
194 250 263 277 292 300 320 301 319 86 78 232 109 149 168 179 204 185 181 154 157 171 123 91 106 54 53 47 35 17 4 8 342 353 346 354 341 337 10 340 1 329 307 303
244 239 253 6 313 322 292 288 64 339 214 233 167 142 150 177 192 186 158 171 148 113 140 172 113 78 74 49 21 23 8 10 357 351 340 342 311 308 351 11 334 328 337 322
262 116 288 300 273 263 52 37 319 19 160 239 315 147 165 187 178 177 173 147 178 156 123 106 76 55 64 43 26 22 15 11 2 354 356 342 314 15 358 341 345 343 334 337
18 345 309 237 328 1 358 163 268 310 272 296 185 248 167 174 182 190 176 87 21 111 134 105 138 120 69 28 23 25 44 17 353 13 351 345 317 350 352 325 329 327 356 343
145 219 257 285 24 358 353 337 313 296 283 351 5 76 261 162 180 168 121 150 204 162 103 99 113 98 76 35 13 41 50 47 359 341 1 345 4 344 322 310 331 8 360 345
5 28 359 40 72 347 325 289 281 271 339 118 234 215 168 160 184 181 160 150 164 144 108 107 104 140 57 32 11 5 69 45 351 320 340 358 2 335 334 333 342 342 357 358
193 277 125 236 279 210 247 278 289 311 253 302 210 225 49 48 83 136 144 167 118 113 142 160 179 52 24 28 15 355 59 18 346 347 359 340 352 322 324 345 327 333 355 16
11 294 352 19 313 332 304 353 318 305 332 315 37 17 100 99 133 126 106 50 94 132 135 108 73 16 16 17 26 355 46 19 331 20 355 351 337 344 349 333 340 319 345 352
326 356 231 63 343 326 332 315 351 299 274 298 122 177 91 111 87 66 125 156 163 134 73 104 92 16 13 6 33 16 19 7 352 333 15 3 11 10 349 320 313 357 354 329
9 311 84 17 297 284 295 6 322 325 297 296 87 77 48 83 86 156 97 91 179 29 82 81 22 2 7 12 35 52 47 325 8 328 6 11 3 352 343 325 342 351 350 329
5 332 315 289 26 353 332 30 333 338 41 297 78 122 45 39 35 11 4 97 107 77 118 65 27 356 11 7 24 52 26 334 346 310 0 343 356 348 339 6 337 348 2 7
59 303 312 357 51 354 30 358 356 330 359 341 319 34 61 38 32 36 343 53 36 13 6 47 312 27 26 345 56 24 347 322 329 296 356 352 360 332 336 359 355 353 30 356
340 42 300 108 45 5 14 27 24 337 3 331 44 160 61 36 11 26 15 9 47 339 24 330 10 32 22 351 43 356 346 336 324 312 21 7 12 11 12 22 0 2 59 15
333 330 347 38 60 56 40 34 28 29 30 38 347 53 30 15 3 7 6 9 5 3 350 357 305 8 44 44 37 336 338 328 315 335 12 1 339 59 36 31 49 49 52 43
2 72 73 68 76 69 54 39 16 53 343 3 12 35 9 2 358 357 360 353 328 10 343 344 357 349 339 85 20 298 325 303 352 323 18 11 327 47 44 39 24 22 64 55
309 111 92 94 86 72 65 219 269 27 357 354 12 21 6 359 354 359 352 349 330 356 1 345 339 345 350 80 323 334 283 277 348 3 333 304 48 348 49 359 84 58 1 19
248 164 137 92 100 124 60 25 27 87 42 4 13 359 358 355 351 355 0 341 343 353 355 339 335 332 347 95 289 308 291 313 353 320 285 8 359 338 344 349 350 2 16 34
78 141 79 150 188 70 84 16 330 86 47 16 24 357 8 348 336 355 359 353 337 351 348 347 333 337 21 299 286 279 285 278 316 288 301 355 333 335 11 311 356 326 344 343
360 103 117 138 82 129 51 20 337 305 54 25 0 355 2 334 311 100 20 360 338 340 336 339 324 313 336 325 299 278 275 280 296 284 335 65 5 350 339 12 337 289 307 304
93 171 186 181 151 114 358 6 343 275 30 3 5 353 358 334 341 12 355 352 334 335 352 317 311 295 275 279 284 284 274 263 289 277 284 32 209 303 333 332 318 317 305 220
63 88 108 93 48 116 355 12 302 336 350 3 346 341 336 336 341 331 333 342 332 311 303 283 274 268 260 219 238 272 286 269 247 255 250 254 305 323 313 346 326 286 285 328
8 313 43 277 121 107 8 33 28 348 324 331 355 343 319 325 333 330 326 317 309 304 298 232 238 251 224 223 253 275 267 275 256 256 256 262 276 284 312 209 310 280 254 258
49 29 28 17 52 65 45 40 14 350 347 336 344 343 321 334 316 309 304 305 325 305 280 289 285 277 255 225 229 262 261 264 262 262 279 267 274 275 272 306 275 264 217 242
86 23 91 73 79 63 36 16 17 351 343 344 334 335 322 333 337 340 331 322 319 302 290 284 282 278 276 223 227 235 273 253 263 253 264 271 269 257 282 289 345 299 308 294
25 41 44 46 17 119 40 18 5 353 359 349 346 331 345 354 356 337 324 326 325 321 320 285 268 270 275 266 233 221 232 257 249 260 261 268 258 251 262 297 302 284 289 331
35 21 50 45 15 5 16 14 6 355 358 358 339 356 351 347 351 349 344 336 344 331 319 311 297 284 275 273 257 217 234 239 255 257 247 268 291 263 265 274 254 250 263 250